OBJECT AX, 61780

Orbit data source: Space-Track

You're viewing an Uncataloged Satellite

Recently launched and/or uncataloged satellites may have evolving metadata. Metadata may include but not limited to: Owner, Maufacturer, Bus, Motor, and Mission.

OBJECT AX, 61780 is a satellite in SSO that was launched on Mon, 04 Nov 2024 UTC via a SOYUZ-2-1B launch vehicle from the Vostochny Cosmodrome (VOSTO). Unknown objects in Earth's orbit typically refer to objects detected orbiting the Earth but have not yet been identified or cataloged. These objects could be anything from previously untracked satellites, spent rocket stages, debris from satellite collisions, or even natural meteoroids temporarily captured by Earth's gravity.

Loading next visibility...
Identifier
61780, 2024-199AX
Orbit
SSO
Country
Flag of TBDTBD
Related business
Manufacturer
Sputniks
Mission
Operational Commercial Communications
Bus & Motor
CUBESAT 3U?, Unknown motor
Mass
3 kg wet, 3 kg dry
Launch date (UTC)
2024-11-04 (1 year ago)
Launch vehicle
SOYUZ-2-1B
Launch site
Vostochny Cosmodrome (VOSTO)
Object type
Unknown
Shape & HBR
Box, 0.1 m
Radar Cross Section
0.035 m², Small (<0.1 m²)

Expand to show TLE details & history
Last TLE update: 7 hours ago

TLE from 7 hours ago
0 OBJECT AX
1 61780U 24199AX  26037.89410980  .00052585  00000-0  10078-2 0  9997
2 61780  97.3144 271.6504 0011362  53.1195 307.1095 15.47784222114210
Epoch: 2026-02-06T21:27Z
TLE epoch observation values (Epoch: 2026-02-06T21:27:31.086Z)
Latitude
-0.00005°
Longitude
172.74544°
Altitude
421.682 km
Speed
7.661 km/s
True Right ascension
18h 06m 36s
True Declination
0° 00' 00"
Sunlit
Object was in daylight at epoch
Visualization orbit readout
Latitude
Unknown
Longitude
Unknown
Altitude
Unknown
Speed
Unknown
Apparent Right ascension
Unknown
Apparent Declination
Unknown
Sunlit
N/A
Visualization observer readout
Local Sidereal Time
06:16:54
Azimuth
Unknown
Elevation
Unknown
Doppler factor
Unknown
Orbital elements
Apogee altitude
427.859 km
Perigee altitude
412.41 km
Semi-major axis
6,798.271 km
Eccentricity
0.00114
Inclination
97.3144°
RAAN
271.6504°
Arg. of periapsis
53.1195°
True anomaly
307.00558°
Mean anomaly
307.1095°
Eccentric anomaly
307.05755°
Mean motion
3.87209 °/min
Orbital period
92.97 mins
BSTAR
0.0010078
Loading maneuver chart data...
Computing Atmospheric mass density...
Loading historical data...
Loading historical data...
Loading historical data...
Loading historical data...
Loading historical data...
Loading historical data...
Loading historical data...

Documentation

Showing up to 5 results
|